Location: Nitra
(0.0000°N, 18.0833°E)
Time: 05:59:10
(UTC+01:00)

Meteor 1-11 - Pass Details

Date: 24 January 2021
Orbit: 840 x 887 km, 81.2° (Epoch: 04 March)

Event Time Altitude Azimuth Distance (km) Brightness Sun altitude
Rises 18:19:31 0° 187° (S) 3,487 7.8 -4.6°
Reaches altitude 10° 18:21:58 10° 188° (S) 2,542 7.1 -5.2°
Maximum altitude 18:27:46 80° 274° (W) 893 4.5 -6.6°
Drops below altitude 10° 18:33:28 10° 1° (N) 2,507 6.5 -7.9°
Sets 18:35:53 0° 3° (N) 3,435 7.1 -8.5°
